NEA+00CR.DAT:K08A03F 26.1 0.15 K081H 349.77773 22.16067 109.86298 2.15257 0.1991672 0.73253181 1.2187606 4 E2008-B01 41 1 5 days 0.63 M-v 3Eh MPC 0003 2008 AF3 20080115 NEA+01CR.DAT:K08A03F 26.1 0.15 K081I 350.45744 22.26625 109.79210 2.13144 0.1977999 0.73440140 1.2166913 4 E2008-B01 41 1 5 days 0.63 M-v 3Eh MPC 0003 2008 AF3 20080115 NEA+02CR.DAT:K08A03F 26.1 0.15 K081J 351.16434 22.33174 109.73966 2.11815 0.1968690 0.73566888 1.2152934 4 E2008-B01 41 1 5 days 0.63 M-v 3Eh MPC 0003 2008 AF3 20080115 NEA+03CR.DAT:K08A03F 26.1 0.15 K081K 351.88500 22.37641 109.69874 2.10912 0.1961966 0.73658256 1.2142882 4 E2008-B01 41 1 5 days 0.63 M-v 3Eh MPC 0003 2008 AF3 20080115 NEA+04CR.DAT:K08A03F 26.1 0.15 K081L 352.61335 22.40902 109.66553 2.10262 0.1956886 0.73727238 1.2135306 4 E2008-B01 41 1 5 days 0.63 M-v 3Eh MPC 0003 2008 AF3 20080115 NEA+05CR.DAT:K08A03F 26.1 0.15 K081M 353.34634 22.43406 109.63775 2.09774 0.1952911 0.73781206 1.2129388 4 E2008-B01 41 1 5 days 0.63 M-v 3Eh MPC 0003 2008 AF3 20080115 NEA+06CR.DAT:K08A03F 26.1 0.15 K081N 354.08230 22.45403 109.61399 2.09395 0.1949715 0.73824630 1.2124631 4 E2008-B01 41 1 5 days 0.63 M-v 3Eh MPC 0003 2008 AF3 20080115 NEA+07CR.DAT:K08A03F 26.1 0.15 K081O 354.82025 22.47044 109.59329 2.09093 0.1947087 0.73860368 1.2120720 4 E2008-B01 41 1 5 days 0.63 M-v 3Eh MPC 0003 2008 AF3 20080115 NEA+08CR.DAT:K08A03F 26.1 0.15 K081P 355.55957 22.48423 109.57499 2.08847 0.1944886 0.73890332 1.2117443 4 E2008-B01 41 1 5 days 0.63 M-v 3Eh MPC 0003 2008 AF3 20080115 NEA+09CR.DAT:K08A03F 26.1 0.15 K081Q 356.29987 22.49605 109.55862 2.08644 0.1943015 0.73915846 1.2114654 4 E2008-B01 41 1 5 days 0.63 M-v 3Eh MPC 0003 2008 AF3 20080115 NEA+10CR.DAT:K08A03F 26.1 0.15 K081R 357.04090 22.50634 109.54382 2.08472 0.1941402 0.73937859 1.2112249 4 E2008-B01 41 1 5 days 0.63 M-v 3Eh MPC 0003 2008 AF3 20080115 NEA+11CR.DAT:K08A03F 26.1 0.15 K081S 357.78248 22.51539 109.53034 2.08327 0.1939998 0.73957063 1.2110152 4 E2008-B01 41 1 5 days 0.63 M-v 3Eh MPC 0003 2008 AF3 20080115 NEA+12CR.DAT:K08A03F 26.1 0.15 K081T 358.52447 22.52346 109.51796 2.08201 0.1938764 0.73973982 1.2108306 4 E2008-B01 41 1 5 days 0.63 M-v 3Eh MPC 0003 2008 AF3 20080115 NEA+13CR.DAT:K08A03F 26.1 0.15 K081U 359.26678 22.53070 109.50653 2.08092 0.1937669 0.73989013 1.2106666 4 E2008-B01 41 1 5 days 0.63 M-v 3Eh MPC 0003 2008 AF3 20080115 NEA+14CR.DAT:K08A03F 26.1 0.15 K081V 0.00934 22.53725 109.49592 2.07997 0.1936690 0.74002467 1.2105199 4 E2008-B01 41 1 5 days 0.63 M-v 3Eh MPC 0003 2008 AF3 20080115 NEA-01CR.DAT:K08A03F 26.1 0.15 K081G 349.15936 21.96599 109.96599 2.19006 0.2013364 0.72954076 1.2220895 4 E2008-B01 41 1 5 days 0.63 M-v 3Eh MPC 0003 2008 AF3 20080115 NEA-02CR.DAT:K08A03F 26.1 0.15 K081F 348.70408 21.53380 110.12880 2.26723 0.2050736 0.72429463 1.2279835 4 E2008-B01 41 1 5 days 0.63 M-v 3Eh MPC 0003 2008 AF3 20080115 NEA-03CR.DAT:K08A03F 26.1 0.15 K081E 348.71269 20.40172 110.38187 2.44341 0.2110984 0.71541779 1.2381204 4 E2008-B01 41 1 5 days 0.63 M-v 3Eh MPC 0003 2008 AF3 20080115 NEA-04CR.DAT:K08A03F 26.1 0.15 K081D 349.27841 18.31480 110.58831 2.69053 0.2137030 0.71012551 1.2442643 4 E2008-B01 41 1 5 days 0.63 M-v 3Eh MPC 0003 2008 AF3 20080115 NEA-05CR.DAT:K08A03F 26.1 0.15 K081C 349.28785 17.00475 110.62075 2.77347 0.2095193 0.71446068 1.2392259 4 E2008-B01 41 1 5 days 0.63 M-v 3Eh MPC 0003 2008 AF3 20080115 NEA-06CR.DAT:K08A03F 26.1 0.15 K081B 348.79020 16.53226 110.62162 2.77375 0.2059964 0.71868075 1.2343700 4 E2008-B01 41 1 5 days 0.63 M-v 3Eh MPC 0003 2008 AF3 20080115 NEA-07CR.DAT:K08A03F 26.1 0.15 K081A 348.13879 16.33786 110.62676 2.76312 0.2038785 0.72129643 1.2313841 4 E2008-B01 41 1 5 days 0.63 M-v 3Eh MPC 0003 2008 AF3 20080115 NEA-08CR.DAT:K08A03F 26.1 0.15 K0819 347.43956 16.23890 110.63534 2.75333 0.2025529 0.72295260 1.2295027 4 E2008-B01 41 1 5 days 0.63 M-v 3Eh MPC 0003 2008 AF3 20080115 NEA-09CR.DAT:K08A03F 26.1 0.15 K0818 346.72267 16.17969 110.64532 2.74552 0.2016646 0.72406800 1.2282397 4 E2008-B01 41 1 5 days 0.63 M-v 3Eh MPC 0003 2008 AF3 20080115 NEA-10CR.DAT:K08A03F 26.1 0.15 K0817 345.99834 16.13992 110.65567 2.73938 0.2010344 0.72486079 1.2273440 4 E2008-B01 41 1 5 days 0.63 M-v 3Eh MPC 0003 2008 AF3 20080115 NEAtodCR.DAT:K08A03F 26.1 0.15 K081H 349.77773 22.16067 109.86298 2.15257 0.1991672 0.73253181 1.2187606 4 E2008-B01 41 1 5 days 0.63 M-v 3Eh MPC 0003 2008 AF3 20080115 NEAtomCR.DAT:K08A03F 26.1 0.15 K081I 350.45744 22.26625 109.79210 2.13144 0.1977999 0.73440140 1.2166913 4 E2008-B01 41 1 5 days 0.63 M-v 3Eh MPC 0003 2008 AF3 20080115